,,PA_Meas_PMT16A,,PR_Meas_QMR101_102,,RH_Meas_QMH101,,SR_Meas_QMS101,,TA_Meas_QMH101,,GenWind,,GenWind,
time,status,PA,status,PR,status,RH,status,SR,status,TA,status,DirAvg,status,SpdAvg,
2016-08-08, 00:00:04,VALID,917.283,VALID,0,VALID,70.6157,VALID,75.3162,VALID,24.5954,VALID,328,VALID,0,
2016-08-08, 00:01:04,VALID,917.268,VALID,0,VALID,68.5345,VALID,75.3162,VALID,24.6754,VALID,355,VALID,0,
2016-08-08, 00:02:04,VALID,917.275,VALID,0,VALID,69.3197,VALID,82.6222,VALID,24.6559,VALID,297,VALID,0,
2016-08-08, 00:03:04,VALID,917.276,VALID,0,VALID,68.809,VALID,94.1184,VALID,24.6559,VALID,285,VALID,0,
2016-08-08, 00:04:04,VALID,917.284,VALID,0,VALID,67.917,VALID,99.4905,VALID,24.6382,VALID,203,VALID,0,
2016-08-08, 00:05:04,VALID,917.264,VALID,0,VALID,66.9565,VALID,88.4241,VALID,24.5582,VALID,314,VALID,0,
2016-08-08, 00:06:04,VALID,917.251,VALID,0,VALID,67.5053,VALID,73.7046,VALID,24.5582,VALID,296,VALID,0,
2016-08-08, 00:07:04,VALID,917.256,VALID,0,VALID,69.6399,VALID,229.387,VALID,24.5387,VALID,291,VALID,0,
2016-08-08, 00:08:04,VALID,917.279,VALID,0,VALID,67.7798,VALID,220.039,VALID,24.5582,VALID,284,VALID,0,
2016-08-08, 00:09:04,VALID,917.301,VALID,0,VALID,68.1915,VALID,138.921,VALID,24.5582,VALID,244,VALID,0,
2016-08-08, 00:10:04,VALID,917.301,VALID,0,VALID,66.6058,VALID,190.493,VALID,24.5387,VALID,257,VALID,0.0046875,
2016-08-08, 00:11:04,VALID,917.313,VALID,0,VALID,67.5282,VALID,96.3747,VALID,24.5387,VALID,234,VALID,0.583203,
2016-08-08, 00:12:04,VALID,917.355,VALID,0,VALID,66.7049,VALID,83.1595,VALID,24.5582,VALID,274,VALID,0,
2016-08-08, 00:13:04,VALID,917.296,VALID,0,VALID,67.0708,VALID,71.9856,VALID,24.5582,VALID,241,VALID,0,
2016-08-08, 00:14:04,VALID,917.272,VALID,0,VALID,66.1103,VALID,63.9275,VALID,24.4997,VALID,239,VALID,1.00195,
2016-08-08, 00:15:04,VALID,917.289,VALID,0,VALID,67.391,VALID,62.5308,VALID,24.4411,VALID,238,VALID,0,
2016-08-08, 00:16:04,VALID,917.258,VALID,0,VALID,67.8408,VALID,63.2828,VALID,24.4801,VALID,339,VALID,0,
2016-08-08, 00:17:04,INVALID,913.903,VALID,0,VALID,66.987,VALID,61.4563,VALID,24.4801,VALID,3,VALID,0,
2016-08-08, 00:18:04,VALID,917.258,VALID,0,VALID,69.9372,VALID,59.6298,VALID,24.4411,VALID,252,VALID,0,
2016-08-08, 00:19:04,VALID,917.266,VALID,0,VALID,67.5892,VALID,86.3827,VALID,24.3239,VALID,217,VALID,0.780469,
2016-08-08, 00:20:04,VALID,917.259,VALID,0,VALID,69.9601,VALID,92.6143,VALID,24.2654,VALID,247,VALID,0,
2016-08-08, 00:21:04,VALID,917.243,VALID,0,VALID,69.7848,VALID,88.639,VALID,24.2068,VALID,247,VALID,0,
2016-08-08, 00:22:04,VALID,917.246,VALID,0,VALID,69.396,VALID,75.6386,VALID,24.2458,VALID,238,VALID,0,
2016-08-08, 00:23:04,VALID,918.943,VALID,0,VALID,70.3565,VALID,74.6716,VALID,24.2245,VALID,195,VALID,0,
2016-08-08, 00:24:04,VALID,917.299,VALID,0,VALID,70.6462,VALID,87.2422,VALID,24.2654,VALID,255,VALID,0,
2016-08-08, 00:25:04,VALID,917.319,VALID,0,VALID,73.0933,VALID,83.8041,VALID,24.2849,VALID,256,VALID,0,
2016-08-08, 00:26:04,VALID,917.794,VALID,0,VALID,72.2776,VALID,84.019,VALID,24.2458,VALID,300,VALID,0,
2016-08-08, 00:27:04,VALID,917.755,VALID,0,VALID,70.6538,VALID,79.7213,VALID,24.1482,VALID,328,VALID,0,
2016-08-08, 00:28:04,VALID,917.411,VALID,0,VALID,68.3287,VALID,78.1097,VALID,24.0896,VALID,342,VALID,0,
2016-08-08, 00:29:04,VALID,917.392,VALID,0,VALID,70.9511,VALID,75.746,VALID,24.1482,VALID,246,VALID,0,
2016-08-08, 00:30:04,VALID,917.389,VALID,0,VALID,70.8292,VALID,78.3246,VALID,24.1092,VALID,259,VALID,0,
2016-08-08, 00:31:04,VALID,917.367,VALID,0,VALID,70.7682,VALID,68.6549,VALID,24.15,VALID,261,VALID,0,
2016-08-08, 00:32:04,VALID,915.692,VALID,0,VALID,71.1341,VALID,65.3242,VALID,24.111,VALID,233,VALID,0,
2016-08-08, 00:33:04,VALID,917.404,VALID,0,VALID,72.1633,VALID,65.0019,VALID,24.1092,VALID,233,VALID,0,
2016-08-08, 00:34:04,VALID,917.411,VALID,0,VALID,71.9803,VALID,65.8614,VALID,24.1891,VALID,233,VALID,0,
2016-08-08, 00:35:04,VALID,917.431,VALID,0,VALID,72.1556,VALID,70.6963,VALID,24.2458,VALID,233,VALID,0,
2016-08-08, 00:36:04,VALID,917.443,VALID,0,VALID,71.8507,VALID,71.8781,VALID,24.3239,VALID,233,VALID,0,
2016-08-08, 00:37:04,VALID,917.471,VALID,0,VALID,72.1785,VALID,69.9442,VALID,24.4039,VALID,233,VALID,0,
2016-08-08, 00:38:04,INVALID,915.13,VALID,0,VALID,71.7363,VALID,67.2582,VALID,24.4392,VALID,233,VALID,0,
2016-08-08, 00:39:04,VALID,916.385,VALID,0,VALID,69.0224,VALID,67.473,VALID,24.4216,VALID,233,VALID,0,
2016-08-08, 00:40:04,VALID,918.196,VALID,0,VALID,72.5749,VALID,66.1837,VALID,24.4216,VALID,234,VALID,0,
2016-08-08, 00:41:04,VALID,917.478,VALID,0,VALID,71.2942,VALID,65.5391,VALID,24.3806,VALID,235,VALID,0,
2016-08-08, 00:42:04,VALID,916.261,VALID,0,VALID,71.1189,VALID,64.8945,VALID,24.2849,VALID,185,VALID,0,
2016-08-08, 14:06:04,VALID,918.262,VALID,0,VALID,104,VALID,86.0604,VALID,19.9788,VALID,3,VALID,0,
2016-08-08, 14:07:04,VALID,917.02,VALID,0,INVALID,112.362,VALID,88.639,VALID,19.9968,VALID,3,VALID,0,
2016-08-08, 14:08:04,INVALID,921.646,VALID,0,INVALID,112.987,VALID,90.5729,VALID,20.0374,VALID,23,VALID,0,
2016-08-08, 14:09:04,VALID,919.887,VALID,0,INVALID,113.444,VALID,92.8292,VALID,20.0374,VALID,23,VALID,0,
2016-08-08, 14:10:04,INVALID,916.552,VALID,0,INVALID,113.467,VALID,95.9449,VALID,20.0374,VALID,23,VALID,0,
2016-08-08, 14:11:04,VALID,918.794,VALID,0,INVALID,113.467,VALID,98.9533,VALID,20.0553,VALID,14,VALID,0,
2016-08-08, 14:12:04,VALID,918.573,VALID,0,INVALID,113.223,VALID,103.251,VALID,20.1139,VALID,14,VALID,0,
2016-08-08, 14:13:04,VALID,920.108,VALID,0,INVALID,112.941,VALID,109.16,VALID,20.1529,VALID,16,VALID,0,
2016-08-08, 14:14:04,VALID,918.758,VALID,0,INVALID,113.109,VALID,111.631,VALID,20.2309,VALID,19,VALID,0,
2016-08-08, 14:15:04,VALID,918.53,VALID,0,INVALID,112.758,VALID,110.557,VALID,20.3089,VALID,19,VALID,0,
2016-08-08, 14:16:04,VALID,919.249,VALID,0,INVALID,112.285,VALID,109.053,VALID,20.408,VALID,19,VALID,0,
2016-08-08, 14:17:04,VALID,918.836,VALID,0,INVALID,112.224,VALID,106.367,VALID,20.4663,0,0,0,0,
